Flag for Germany Weather past 2 weeks in Buxtehude, Lower Saxony, Germany

Now
61 °F

Scattered clouds.


Feels Like: 61 °F
Forecast: 44 / 66 °F
Wind: 10 mph from Northeast

Location: Hamburg-Finkenwerder


UV Index: 3 (Moderate)

Visibility: N/A


Pressure: 30.12 "Hg

Humidity: 77%

Dew point: 54 °F

Location of BuxtehudeLocation

Historic Weather in Buxtehude

°F

Buxtehude temperature yesterday

Maximum temperature yesterday: 66 °F (at 1:50 PM)
Minimum temperature yesterday: 50 °F (at 5:50 AM)
Average temperature yesterday: 59 °F

Past Weeks' High & Low Weather Summary

 TemperatureHumidityPressure
High66 °F (Apr 22, 1:50 PM)100% (Apr 10, 3:20 PM)30.45 "Hg (Apr 10, 3:20 PM)
Low32 °F (Apr 16, 5:50 AM)33% (Apr 16, 7:50 PM)29.68 "Hg (Apr 14, 5:50 AM)
Average51 °F73%30.07 "Hg
* Reported Apr 8 7:20 PM — Apr 23 7:20 PM, Buxtehude, Weather by CustomWeather, © 2014

Note: Actual official high and low records may vary slightly from our data, if they occured in-between our weather recording intervals... More about our weather records

Advertising

Historic Weather Conditions — Data for Previous 24 hours

 ConditionsComfort  
Time TempWeatherWind HumidityBarometerVisibility
7:20 PM
Apr 23
61 °FScattered clouds.10 mph77%30.12 "HgN/A
6:50 PM63 °FScattered clouds.10 mph73%30.12 "HgN/A
6:20 PM63 °FScattered clouds.8 mph73%30.12 "HgN/A
5:50 PM63 °FScattered clouds.7 mph73%30.12 "HgN/A
5:20 PM63 °FScattered clouds.6 mph73%30.12 "HgN/A
4:50 PM63 °FBroken clouds.7 mph73%30.12 "HgN/A
4:20 PM63 °FScattered clouds.8 mph73%30.12 "HgN/A
3:50 PM63 °FScattered clouds.8 mph77%30.12 "HgN/A
3:20 PM63 °FBroken clouds.8 mph77%30.12 "HgN/A
2:50 PM61 °FBroken clouds.7 mph83%30.12 "HgN/A
2:20 PM61 °FBroken clouds.7 mph83%30.12 "HgN/A
1:50 PM61 °FPartly sunny.8 mph83%30.12 "Hg6 mi
1:20 PM61 °FPartly sunny.9 mph88%30.12 "Hg6 mi
12:50 PM61 °FBroken clouds.6 mph88%30.12 "Hg4 mi
12:20 PM57 °FPartly sunny.5 mph94%30.12 "Hg4 mi
11:50 AM57 °FPartly sunny.5 mph94%30.12 "Hg4 mi
11:20 AM57 °FLight rain. Broken clouds.6 mph94%30.12 "Hg4 mi
10:50 AM55 °FLight rain. Fog.5 mph100%30.12 "Hg3 mi
10:20 AM54 °FRain. Fog.2 mph100%30.12 "Hg2 mi
9:50 AM54 °FLight rain. Fog.3 mph100%30.09 "Hg2 mi
9:20 AM54 °FLight rain. Fog.3 mph100%30.09 "Hg1 mi
8:50 AM54 °FLight rain. Fog.3 mph100%30.09 "Hg1 mi
8:20 AM54 °FLight rain. Fog.3 mph94%30.07 "Hg2 mi
7:50 AM54 °FLight rain. Fog.3 mph94%30.07 "Hg2 mi
7:20 AM54 °FFog.6 mph94%30.07 "Hg2 mi
6:50 AM52 °FFog.5 mph100%30.07 "Hg1 mi
6:20 AM52 °FFog.7 mph100%30.07 "Hg2 mi
5:50 AM52 °FFog.6 mph100%30.04 "Hg2 mi
8:50 PM
Apr 22
57 °FPartly sunny.3 mph94%29.95 "HgN/A
8:20 PM57 °FPartly sunny.1 mph94%29.95 "HgN/A
Weather by CustomWeather, © 2014

See weather overview